Location: Carrières
(48.9495°N, 2.0407°E)
Time: 21:06:27
(UTC+00:00)

Courier 1B Rocket - Pass Details

Date: 19 April 2024
Orbit: 920 x 1201 km, 28.2° (Epoch: 25 May)

Event Time Altitude Azimuth Distance (km) Brightness Sun altitude
Rises 04:41:56 0° 214° (SW) 3,969 7.7 -2.4°
Reaches altitude 10° 04:48:03 10° 177° (S) 2,927 7.4 -1.5°
Maximum altitude 04:49:06 10° 169° (SSE) 2,885 7.4 -1.3°
Drops below altitude 10° 04:50:08 10° 160° (SSE) 2,896 7.5 -1.2°
Sets 04:55:56 0° 122° (ESE) 3,760 8.7 -0.3°
